GW7243 Weather Reports


Display with metric or nautical units.
time (UTC)temp
F
wind
direction
speed
MPH
gust
MPH
rain 1hr
in
rain 24hr
in
rain mn
in
humidity
%
barometer
mb
20260510224503 56 161 1.0 2.0 0.00 0.37 0.00 83 1016.1
20260510223624 57 228 0.0 1.0 0.00 0.37 0.00 82 1016.4
20260510222703 57 220 0.0 2.0 0.00 0.37 0.00 82 1016.2
20260510221803 57 29 1.0 3.0 0.00 0.37 0.00 82 1016.2
20260510220903 57 353 0.0 2.0 0.00 0.37 0.00 82 1016.5
20260510220003 57 257 0.0 2.0 0.00 0.37 0.00 82 1016.4
20260510215403 57 245 1.0 2.0 0.00 0.37 0.37 82 1016.3
20260510214503 57 251 0.0 2.0 0.00 0.37 0.37 82 1016.4
20260510213624 57 87 0.0 1.0 0.00 0.37 0.37 82 1016.0
20260510212703 57 262 0.0 2.0 0.00 0.37 0.37 82 1016.1
20260510212306 57 295 0.0 1.0 0.00 0.37 0.37 82 1016.1
20260510211804 57 124 0.0 1.0 0.00 0.37 0.37 81 1016.2
20260510211304 57 27 0.0 2.0 0.00 0.37 0.37 81 1016.1
20260510210804 57 240 0.0 2.0 0.00 0.37 0.37 81 1016.3
20260510210304 57 277 0.0 1.0 0.00 0.37 0.37 81 1016.2
20260510205804 57 27 1.0 1.0 0.00 0.37 0.37 81 1016.2
20260510205306 57 327 0.0 3.0 0.00 0.37 0.37 81 1016.0
20260510204804 57 288 2.0 5.0 0.00 0.37 0.37 81 1016.0
20260510204304 57 281 2.0 3.0 0.00 0.37 0.37 81 1015.8
20260510203804 58 264 2.0 3.0 0.00 0.37 0.37 80 1015.7
20260510203304 58 265 2.0 5.0 0.00 0.37 0.37 79 1015.8
20260510202804 58 291 2.0 3.0 0.00 0.37 0.37 78 1015.5
20260510202306 58 269 3.0 5.0 0.00 0.37 0.37 77 1015.6
20260510201804 58 266 2.0 3.0 0.00 0.37 0.37 77 1015.6
20260510201304 59 259 3.0 5.0 0.00 0.37 0.37 76 1015.5
20260510200804 59 248 3.0 5.0 0.00 0.37 0.37 76 1015.6
20260510200304 60 249 3.0 6.0 0.00 0.37 0.37 74 1015.5
20260510195803 60 260 4.0 7.0 0.00 0.37 0.37 73 1015.3
20260510194804 60 259 6.0 8.0 0.00 0.37 0.37 71 1015.3
20260510194304 61 252 5.0 8.0 0.00 0.37 0.37 71 1015.2
20260510193803 61 248 6.0 9.0 0.00 0.37 0.37 70 1015.1
20260510193304 61 251 6.0 10.0 0.00 0.37 0.37 69 1015.1
20260510192804 61 258 6.0 9.0 0.00 0.37 0.37 69 1015.2
20260510192306 61 258 6.0 9.0 0.00 0.37 0.37 68 1015.0
20260510191803 62 251 7.0 9.0 0.00 0.37 0.37 68 1015.0
20260510190804 62 252 8.0 12.0 0.00 0.37 0.37 66 1015.0
20260510190304 62 242 9.0 13.0 0.00 0.37 0.37 65 1015.1
20260510185803 63 260 7.0 10.0 0.00 0.37 0.37 64 1015.1
20260510185306 63 247 9.0 13.0 0.00 0.37 0.37 64 1014.9
20260510184804 63 224 8.0 10.0 0.00 0.37 0.37 63 1014.9
20260510184304 63 243 8.0 10.0 0.00 0.37 0.37 63 1014.9
20260510183803 64 258 10.0 15.0 0.00 0.37 0.37 61 1014.9
20260510183304 64 239 10.0 17.0 0.00 0.37 0.37 60 1014.9
20260510182804 64 246 12.0 21.0 0.00 0.37 0.37 59 1014.7
20260510182306 64 238 9.0 14.0 0.00 0.37 0.37 59 1014.7
20260510181804 64 242 10.0 17.0 0.00 0.37 0.37 58 1014.7
20260510180804 65 247 11.0 20.0 0.00 0.37 0.37 57 1014.7
20260510180304 65 242 8.0 16.0 0.00 0.37 0.37 57 1014.4
20260510175803 65 248 11.0 16.0 0.00 0.37 0.37 56 1014.7
20260510174804 65 241 10.0 17.0 0.00 0.37 0.37 54 1014.6
20260510174304 65 235 9.0 15.0 0.00 0.37 0.37 55 1014.4
20260510173805 65 240 12.0 15.0 0.00 0.37 0.37 54 1014.5
20260510173304 66 243 9.0 17.0 0.00 0.37 0.37 54 1014.5
20260510172804 66 250 9.0 16.0 0.00 0.37 0.37 54 1014.5
20260510172307 66 248 10.0 16.0 0.00 0.37 0.37 53 1014.4
20260510171804 66 251 12.0 17.0 0.00 0.37 0.37 52 1014.5
20260510171304 66 249 16.0 22.0 0.00 0.37 0.37 53 1014.5
20260510170305 67 254 10.0 16.0 0.00 0.37 0.37 54 1014.3
20260510165804 66 254 16.0 22.0 0.00 0.37 0.37 53 1014.3
20260510165306 67 262 12.0 15.0 0.00 0.37 0.37 53 1014.4
20260510164804 66 232 12.0 18.0 0.00 0.37 0.37 56 1014.5
20260510163805 65 242 12.0 17.0 0.00 0.37 0.37 57 1014.5
20260510163304 65 251 12.0 17.0 0.00 0.37 0.37 58 1014.6
20260510162804 66 258 12.0 21.0 0.00 0.37 0.37 59 1014.5
20260510162306 66 252 17.0 18.0 0.00 0.37 0.37 59 1014.2
20260510161304 65 257 13.0 18.0 0.00 0.37 0.37 60 1014.5
20260510160805 66 260 11.0 17.0 0.00 0.37 0.37 62 1014.5
20260510160304 65 258 10.0 18.0 0.00 0.37 0.37 64 1014.4
20260510155804 65 263 11.0 16.0 0.00 0.37 0.37 65 1014.5
20260510155306 64 273 10.0 16.0 0.00 0.37 0.37 66 1014.5
20260510154804 63 263 13.0 18.0 0.00 0.37 0.37 66 1014.5
20260510153804 63 259 11.0 17.0 0.00 0.37 0.37 62 1014.8
20260510153304 63 264 11.0 21.0 0.00 0.37 0.37 60 1014.7
20260510152804 64 277 15.0 23.0 0.00 0.37 0.37 58 1014.5
20260510152307 66 261 13.0 21.0 0.00 0.37 0.37 60 1014.3
20260510151804 66 236 15.0 22.0 0.00 0.37 0.37 59 1014.4
20260510150804 67 241 14.0 21.0 0.00 0.37 0.37 58 1014.3
20260510145306 65 249 12.0 20.0 0.00 0.37 0.37 61 1014.6
20260510144805 66 232 16.0 23.0 0.00 0.37 0.37 61 1014.4
20260510144304 65 231 13.0 21.0 0.00 0.37 0.37 59 1014.4
20260510143805 66 238 13.0 18.0 0.00 0.37 0.37 58 1014.4
20260510143304 67 250 17.0 21.0 0.00 0.37 0.37 55 1014.6
20260510142803 67 246 10.0 18.0 0.00 0.37 0.37 57 1014.6
20260510142306 66 226 20.0 28.0 0.00 0.37 0.37 55 1014.7
20260510141804 66 244 15.0 21.0 0.00 0.37 0.37 57 1014.6
20260510140304 66 248 13.0 22.0 0.00 0.37 0.37 59 1014.7
20260510135804 65 232 17.0 24.0 0.00 0.37 0.37 60 1014.6
20260510135306 65 225 13.0 20.0 0.00 0.37 0.37 62 1014.6
20260510134304 65 241 16.0 25.0 0.00 0.37 0.37 63 1014.7
20260510133803 63 251 15.0 23.0 0.00 0.37 0.37 65 1014.6
20260510133304 63 244 16.0 23.0 0.00 0.37 0.37 67 1014.9
20260510132803 63 256 11.0 14.0 0.00 0.37 0.37 69 1014.9
20260510132311 62 235 9.0 20.0 0.01 0.37 0.37 73 1014.8
20260510131807 60 246 12.0 16.0 0.01 0.37 0.37 76 1014.8
20260510131304 60 269 12.0 17.0 0.01 0.37 0.37 79 1014.9
20260510130804 59 256 12.0 17.0 0.01 0.37 0.37 82 1014.8
20260510130304 58 272 13.0 16.0 0.01 0.37 0.37 86 1014.8
20260510125306 60 282 17.0 22.0 0.01 0.37 0.37 82 1015.1
20260510124804 61 267 14.0 20.0 0.01 0.37 0.37 80 1015.0
20260510124304 61 254 14.0 22.0 0.01 0.37 0.37 80 1015.0
20260510123803 60 256 14.0 21.0 0.01 0.37 0.37 82 1015.0
20260510123304 60 260 12.0 23.0 0.01 0.37 0.37 85 1015.0
20260510122804 60 254 17.0 26.0 0.01 0.37 0.37 83 1015.1
20260510122306 62 251 16.0 29.0 0.00 0.37 0.37 76 1014.9
20260510121809 64 259 20.0 29.0 0.00 0.37 0.37 69 1014.7
20260510121303 65 249 17.0 23.0 0.00 0.37 0.37 66 1014.6
20260510120804 65 238 17.0 25.0 0.00 0.37 0.37 64 1014.5
20260510120304 66 239 15.0 23.0 0.00 0.37 0.37 66 1014.3
20260510115803 65 252 13.0 23.0 0.00 0.40 0.37 64 1014.4
20260510115306 66 235 14.0 18.0 0.00 0.46 0.37 66 1014.5
20260510114804 67 220 13.0 21.0 0.00 0.54 0.37 64 1014.2
20260510114304 66 213 12.0 21.0 0.00 0.54 0.37 64 1014.3
20260510112804 67 242 14.0 20.0 0.00 0.54 0.37 63 1014.4
20260510112306 66 247 17.0 23.0 0.00 0.57 0.37 63 1014.2
20260510111804 66 230 11.0 21.0 0.00 0.58 0.37 62 1014.4
20260510111304 66 220 14.0 22.0 0.00 0.65 0.37 63 1014.2
20260510110304 66 226 17.0 24.0 0.00 0.72 0.37 63 1014.5
20260510105306 66 246 12.0 21.0 0.00 0.73 0.37 65 1014.3
20260510104804 66 248 11.0 17.0 0.00 0.73 0.37 66 1014.6
20260510104304 65 240 13.0 22.0 0.00 0.81 0.37 66 1014.4
20260510103804 64 251 14.0 22.0 0.00 0.83 0.37 69 1014.6
20260510102306 64 242 9.0 17.0 0.07 0.83 0.37 78 1014.6
20260510101804 64 232 13.0 18.0 0.10 0.83 0.37 78 1014.8
20260510101304 63 241 13.0 20.0 0.10 0.83 0.37 78 1014.8
20260510100804 63 243 13.0 17.0 0.10 0.83 0.37 80 1014.8
20260510100304 62 238 10.0 16.0 0.10 0.83 0.37 80 1014.6
20260510095804 61 243 12.0 16.0 0.10 0.83 0.37 83 1014.6
20260510094804 60 242 10.0 14.0 0.11 0.83 0.37 85 1014.6
20260510094304 59 254 8.0 14.0 0.11 0.83 0.37 88 1014.6
20260510093804 58 248 8.0 17.0 0.11 0.83 0.37 89 1014.5
20260510093304 59 236 11.0 23.0 0.10 0.82 0.36 86 1014.6
20260510092804 59 260 17.0 22.0 0.09 0.81 0.35 86 1014.6
20260510092306 59 257 14.0 20.0 0.04 0.76 0.30 83 1014.4
20260510091804 61 274 9.0 13.0 0.04 0.72 0.26 91 1014.6
20260510091303 60 258 6.0 9.0 0.07 0.72 0.26 91 1014.3
20260510090804 60 267 8.0 10.0 0.08 0.73 0.26 91 1014.2
20260510090304 60 266 6.0 9.0 0.11 0.74 0.26 92 1014.3
20260510085804 60 260 3.0 7.0 0.21 0.74 0.26 92 1014.1
20260510085306 59 251 7.0 10.0 0.24 0.74 0.26 91 1014.2
20260510084804 59 255 6.0 10.0 0.24 0.74 0.26 90 1014.3
20260510084304 59 263 5.0 8.0 0.24 0.74 0.26 91 1014.1
20260510083804 59 253 5.0 8.0 0.24 0.74 0.26 91 1014.2
20260510083304 59 247 7.0 10.0 0.24 0.74 0.26 90 1014.0
20260510082804 58 234 7.0 13.0 0.24 0.74 0.26 92 1014.1
20260510082306 58 209 10.0 18.0 0.24 0.74 0.26 92 1014.1
20260510081804 59 240 9.0 14.0 0.21 0.71 0.23 92 1014.3
20260510081304 59 255 6.0 9.0 0.17 0.67 0.19 93 1014.2
20260510080804 59 243 9.0 13.0 0.16 0.66 0.18 92 1014.2
20260510080304 59 199 10.0 13.0 0.14 0.64 0.16 92 1014.1
20260510075804 60 252 7.0 10.0 0.03 0.53 0.05 91 1014.1
20260510075306 60 216 8.0 10.0 0.00 0.50 0.02 90 1014.0
20260510074804 60 211 9.0 10.0 0.00 0.50 0.02 91 1014.0
20260510074305 60 199 6.0 9.0 0.00 0.50 0.02 92 1013.9
20260510073304 59 201 5.0 9.0 0.00 0.50 0.02 92 1013.8
20260510072803 60 208 7.0 12.0 0.00 0.50 0.02 92 1013.9
20260510072305 60 192 9.0 13.0 0.00 0.50 0.02 92 1013.9
20260510071804 60 200 7.0 10.0 0.00 0.50 0.02 92 1013.9
20260510071304 59 208 7.0 9.0 0.00 0.50 0.02 92 1013.9
20260510065803 58 201 5.0 7.0 0.00 0.50 0.02 93 1013.8
20260510065306 58 194 5.0 8.0 0.00 0.50 0.02 93 1013.8
20260510064304 58 179 3.0 5.0 0.01 0.50 0.02 95 1013.6
20260510063803 58 268 2.0 3.0 0.01 0.50 0.02 95 1013.7
20260510063304 58 310 2.0 3.0 0.01 0.50 0.02 95 1013.6
20260510062804 58 183 1.0 3.0 0.01 0.50 0.02 95 1013.7
20260510062307 58 239 3.0 5.0 0.01 0.50 0.02 95 1013.8
20260510061803 58 212 2.0 5.0 0.01 0.50 0.02 95 1013.7
20260510061304 58 278 3.0 5.0 0.01 0.50 0.02 95 1013.7
20260510060804 57 273 3.0 5.0 0.02 0.50 0.02 95 1013.6
20260510060303 58 252 2.0 5.0 0.02 0.50 0.02 95 1013.6
20260510055803 58 301 4.0 5.0 0.02 0.50 0.02 95 1013.7
20260510055306 58 271 3.0 5.0 0.02 0.51 0.02 95 1013.7
20260510054804 57 281 3.0 5.0 0.01 0.50 0.01 95 1013.5
20260510054304 57 267 2.0 6.0 0.01 0.50 0.01 94 1013.3
20260510053804 58 315 5.0 6.0 0.01 0.50 0.01 95 1013.2
20260510053304 57 274 3.0 5.0 0.01 0.50 0.01 95 1013.4
20260510052804 57 227 3.0 5.0 0.01 0.50 0.01 94 1013.4
20260510051804 57 247 3.0 6.0 0.01 0.50 0.01 94 1013.3
20260510051304 57 265 3.0 7.0 0.01 0.50 0.01 94 1013.7
20260510050804 57 210 5.0 7.0 0.00 0.50 0.00 93 1013.4
20260510050304 57 235 2.0 5.0 0.00 0.50 0.00 94 1013.5
20260510045306 57 269 2.0 3.0 0.00 0.50 0.00 93 1013.1
20260510044804 57 224 3.0 5.0 0.00 0.50 0.00 93 1013.1
20260510044304 57 199 3.0 6.0 0.00 0.50 0.00 93 1013.3
20260510043303 58 215 6.0 9.0 0.00 0.49 0.00 92 1013.0
20260510042804 58 200 6.0 9.0 0.00 0.49 0.00 92 1013.2
20260510042306 58 204 6.0 8.0 0.00 0.49 0.00 92 1013.1
20260510041804 58 204 4.0 8.0 0.00 0.49 0.00 92 1013.3
20260510041303 58 204 5.0 8.0 0.00 0.49 0.00 92 1013.3
20260510040804 58 194 5.0 8.0 0.00 0.49 0.00 92 1013.3
20260510040303 58 185 4.0 6.0 0.00 0.49 0.00 92 1013.1
20260510035306 58 209 5.0 7.0 0.00 0.49 0.00 92 1013.1
20260510034804 58 213 5.0 9.0 0.00 0.49 0.00 93 1013.0
20260510034303 58 225 5.0 7.0 0.00 0.49 0.00 93 1012.9
20260510032804 58 223 2.0 7.0 0.00 0.49 0.00 94 1013.3
20260510032306 58 228 5.0 7.0 0.00 0.49 0.00 94 1013.2
20260510031804 58 264 3.0 8.0 0.00 0.49 0.00 93 1012.9
20260510031304 58 208 5.0 9.0 0.00 0.49 0.00 93 1013.0
20260510030804 58 213 3.0 6.0 0.00 0.49 0.00 93 1013.1
20260510030305 59 222 4.0 7.0 0.00 0.49 0.00 93 1013.2
20260510025804 59 220 5.0 8.0 0.00 0.49 0.00 92 1013.1
20260510024804 59 187 4.0 7.0 0.00 0.49 0.00 93 1013.0
20260510024304 59 264 5.0 8.0 0.00 0.49 0.00 93 1013.0
20260510023803 58 283 6.0 10.0 0.00 0.49 0.00 94 1013.2
20260510023304 58 296 7.0 10.0 0.00 0.49 0.00 94 1013.2
20260510022803 58 284 3.0 5.0 0.00 0.49 0.00 94 1013.3
20260510022306 58 279 2.0 5.0 0.00 0.49 0.00 94 1013.1
20260510021804 58 278 2.0 5.0 0.00 0.49 0.00 94 1013.2
20260510020804 59 215 4.0 6.0 0.00 0.49 0.00 93 1013.2
20260510020304 59 229 2.0 6.0 0.00 0.49 0.00 93 1013.3
20260510015803 59 193 3.0 6.0 0.00 0.49 0.00 93 1013.2
20260510015306 59 177 5.0 7.0 0.00 0.49 0.00 94 1013.4
20260510014804 59 201 3.0 6.0 0.00 0.49 0.00 94 1013.3
20260510014304 59 206 3.0 6.0 0.00 0.49 0.00 94 1013.3
20260510013804 59 233 2.0 5.0 0.00 0.49 0.00 94 1013.5
20260510013304 58 213 3.0 5.0 0.00 0.49 0.00 94 1013.6
20260510012804 58 199 3.0 5.0 0.00 0.49 0.00 94 1013.5
20260510012306 59 205 5.0 6.0 0.00 0.49 0.00 93 1013.6
20260510011303 59 225 2.0 6.0 0.00 0.49 0.00 93 1013.6
20260510010804 59 219 3.0 6.0 0.00 0.49 0.00 93 1013.5
20260510005803 58 214 4.0 6.0 0.00 0.49 0.00 93 1013.8
20260510005306 58 210 3.0 5.0 0.00 0.49 0.00 94 1013.8
20260510004804 58 229 2.0 6.0 0.00 0.49 0.00 94 1013.8
20260510003804 58 225 3.0 6.0 0.00 0.49 0.00 94 1014.1
20260510002803 58 213 4.0 5.0 0.00 0.49 0.00 94 1014.1
20260510002306 58 213 3.0 5.0 0.00 0.49 0.00 94 1014.1
20260510001804 58 248 3.0 5.0 0.00 0.49 0.00 93 1014.0
20260510001304 58 237 3.0 5.0 0.00 0.49 0.00 93 1014.2
20260510000803 58 234 3.0 5.0 0.00 0.49 0.00 93 1014.2
20260509234804 58 284 2.0 5.0 0.00 0.49 0.00 91 1014.2
20260509234304 58 288 3.0 5.0 0.00 0.49 0.00 91 1014.4
20260509233804 58 258 3.0 5.0 0.00 0.49 0.00 91 1014.5
20260509233304 58 214 3.0 5.0 0.00 0.49 0.00 91 1014.2
20260509232804 58 225 2.0 5.0 0.00 0.49 0.00 90 1014.3
20260509232306 58 239 2.0 5.0 0.00 0.49 0.00 90 1014.3
20260509231804 58 203 2.0 3.0 0.00 0.49 0.00 90 1014.3
20260509231304 58 314 2.0 3.0 0.00 0.49 0.00 90 1014.4
20260509230804 58 306 4.0 7.0 0.00 0.49 0.00 89 1014.4
20260509225804 58 299 4.0 6.0 0.00 0.49 0.00 90 1014.4